STARLINK-32395, 61679

Orbit data source: Space-Track

STARLINK-32395, 61679 is a payload satellite owned by SpaceX/Seattle (US) in LEO that was launched on Sat, 26 Oct 2024 UTC via an FALCON 9 launch vehicle from the Air Force Eastern Test Range (AFETR). Payload-class satellites include a variety of spacecraft equipped with specific instruments for various scientific and technological missions. These include communications satellites like Starlink; space stations such as the ISS; scientific satellites like the Hubble; Earth observation satellites from companies like Planet Labs, Umbra, and HawkEye 360; GPS; miniature CubeSats for education and research; and military/defense satellites.

Loading next visibility...
Identifier
61679, 2024-193U
Orbit
LEO
Country
Flag of USUS
Related business
Manufacturer
SpaceX/Seattle
Mission
Operational Commercial Communications
Bus & Motor
STARLINK V2M, Unknown motor
Mass
730 kg wet, ~700 kg dry
Launch date (UTC)
2024-10-26 (2 years ago)
Launch vehicle
FALCON 9
Launch site
Air Force Eastern Test Range (AFETR)
Object type
Payload
Rocket body
Debris
Shape & HBR
Box + 2 Pan, 17.7 m
Radar Cross Section
33.884 m², Large (>1 m²)

Expand to show TLE details & history
Last TLE update: 16 hours ago

TLE from 16 hours ago
0 STARLINK-32395
1 61679U 24193U   26171.18029390  .00006955  00000-0  24703-3 0  9991
2 61679  53.1610 335.2827 0001262 102.2177 257.8965 15.30159073 92218
Epoch: 2026-06-20T04:19Z
TLE epoch observation values (Epoch: 2026-06-20T04:19:37.392Z)
Latitude
-0.00006°
Longitude
1.97824°
Altitude
476.419 km
Speed
7.629 km/s
True Right ascension
22h 21m 07s
True Declination
0° 00' 00"
Sunlit
Object was in partial shadow at epoch
Visualization orbit readout
Latitude
Unknown
Longitude
Unknown
Altitude
Unknown
Speed
Unknown
Apparent Right ascension
Unknown
Apparent Declination
Unknown
Sunlit
N/A
Visualization observer readout
Local Sidereal Time
07:19:02
Azimuth
Unknown
Elevation
Unknown
Doppler factor
Unknown
Orbital elements
Apogee altitude
476.458 km
Perigee altitude
474.729 km
Semi-major axis
6,853.731 km
Eccentricity
0.00013
Inclination
53.161°
RAAN
335.2827°
Arg. of periapsis
102.2177°
True anomaly
257.88236°
Mean anomaly
257.8965°
Eccentric anomaly
257.88943°
Mean motion
3.82519 °/min
Orbital period
94.11 mins
BSTAR
0.00024703
Loading maneuver chart data...
Computing Atmospheric mass density...
Loading historical data...
Loading historical data...
Loading historical data...
Loading historical data...
Loading historical data...
Loading historical data...
Loading historical data...

Documentation

Showing up to 5 results
|